Regional Weather Roundup
Issued by NWS

Home | Current Version | Previous Version | Text Only | Print | Product List | Glossary Off
Versions: 1 2 3 4 5 6 7 8 9 10 11 12 13 14 15 16 17 18 19 20 21 22 23 24 25 26 27 28 29 30 31 32 33 34 35 36 37 38 39 40 41 42 43 44 45 46 47 48 49 50

272
ASUS43 KLSX 230107
RWRMO

WEATHER SUMMARY FOR MISSOURI
NATIONAL WEATHER SERVICE SPRINGFIELD MO
800 PM CDT TUE AUG 22 2017

NOTE: "FAIR" INDICATES FEW OR NO CLOUDS BELOW 12,000 FEET WITH NO
       SIGNIFICANT WEATHER AND/OR OBSTRUCTIONS TO VISIBILITY.
       CURRENT SKY AND/OR WEATHER CONDITIONS ARE NOT AVAILABLE FOR
       CHILLICOTHE AND FARMINGTON.

MOZ001>031-035>038-043-044-053-054-230200-
...NORTHERN AND WESTERN MISSOURI...

CITY           SKY/WX    TMP DP  RH WIND       PRES   REMARKS
KANSAS CTY INT CLEAR     67  56  67 N9        30.10S
KANSAS C DTWN  CLEAR     72  55  55 N7        30.09R
LEE`S SUMMIT   CLEAR     71  57  61 MISG      30.10R
ST JOSEPH      CLEAR     65  58  78 N7        30.11R
CHILLICOTHE      N/A     68  58  70 CALM      30.09R
KIRKSVILLE     CLEAR     69  50  50 NW6       30.08R

$$
MOZ066>068-077>081-088>096-101>105-230200-
...SOUTHWEST MISSOURI...

CITY           SKY/WX    TMP DP  RH WIND       PRES   REMARKS
SPRINGFIELD    CLOUDY    77  72  84 N5        30.05R
JOPLIN         MOCLDY    78  74  87 N6        30.06R
BRANSON        CLOUDY    77  72  83 CALM      30.06R

$$
MOZ032>034-039>042-045>050-055>058-069>072-230200-
...CENTRAL MISSOURI...

CITY           SKY/WX    TMP DP  RH WIND       PRES   REMARKS
COLUMBIA       CLEAR     71  61  70 N7        30.05R
JEFFERSON CITY CLEAR     76  64  66 N3        30.03R
ROLLA          PTCLDY    72  66  81 NW5       30.06R
SEDALIA        CLEAR     72  67  84 N5        30.07S
WHITEMAN AFB   PTCLDY    71  67  88 N9        30.06R
WARRENSBURG    CLEAR     70  59  68 N7        30.07R
OSAGE BEACH    CLEAR     72  66  81 N3        30.06R

$$
MOZ051-052-059>065-230200-
...EAST CENTRAL MISSOURI...

CITY           SKY/WX    TMP DP  RH WIND       PRES   REMARKS
ST LOUIS INTL  PTCLDY    75  61  61 N8        30.02R
SPIRIT OF STL  PTCLDY    76  60  57 N5        30.01R
ST CHARLES     CLEAR     73  63  70 NW3       30.01R

$$
MOZ072>076-082>087-097>100-106>115-230200-
...SOUTH CENTRAL AND SOUTHEAST MISSOURI...

CITY           SKY/WX    TMP DP  RH WIND       PRES   REMARKS
CAPE GIRARDEAU CLEAR     76  67  73 N6        29.98S
FARMINGTON     CLEAR     75  67  76 CALM      30.03S
POPLAR BLUFF   CLEAR     76  71  85 N5        29.98S
WEST PLAINS    PTCLDY    76  68  76 N3        30.05S

$$



USA.gov is the U.S. government's official web portal to all federal, state and local government web resources and services.